Time,TemperatureF,DewpointF,PressureIn,WindDirection,WindDirectionDegrees,WindSpeedMPH,WindSpeedGustMPH,Humidity,HourlyPrecipIn,Conditions,Clouds,dailyrainin,SolarRadiationWatts/m^2,SoftwareType,DateUTC
2013-03-23 00:03:00,26.0,19.0,-100.00,North,9,4.0,14.0,76,0.00,,,0.00,0.000000,,2013-03-23 04:03:00,
2013-03-23 00:33:00,25.0,18.0,-100.00,NNW,347,4.0,9.0,74,0.00,,,0.00,0.000000,,2013-03-23 04:33:00,
2013-03-23 00:43:00,25.0,18.0,-100.00,NNW,347,4.0,9.0,74,0.00,,,0.00,0.000000,,2013-03-23 04:43:00,
2013-03-23 00:53:00,25.0,18.0,-100.00,NNW,347,4.0,9.0,74,0.00,,,0.00,0.000000,,2013-03-23 04:53:00,
2013-03-23 01:02:00,25.0,18.0,-100.00,NNW,347,4.0,9.0,74,0.00,,,0.00,0.000000,,2013-03-23 05:02:00,
2013-03-23 01:33:00,24.0,19.0,-100.00,West,262,4.0,8.0,80,0.00,,,0.00,0.000000,,2013-03-23 05:33:00,
2013-03-23 01:42:00,24.0,19.0,-100.00,West,262,4.0,8.0,80,0.00,,,0.00,0.000000,,2013-03-23 05:42:00,
2013-03-23 01:53:00,24.0,19.0,-100.00,West,262,4.0,8.0,80,0.00,,,0.00,0.000000,,2013-03-23 05:53:00,
2013-03-23 02:02:00,24.0,19.0,-100.00,West,262,4.0,8.0,80,0.00,,,0.00,0.000000,,2013-03-23 06:02:00,
2013-03-23 02:32:00,25.0,21.0,-100.00,NW,310,4.0,6.0,85,0.00,,,0.00,0.000000,,2013-03-23 06:32:00,
2013-03-23 02:42:00,25.0,21.0,-100.00,NW,310,4.0,6.0,85,0.00,,,0.00,0.000000,,2013-03-23 06:42:00,
2013-03-23 02:52:00,25.0,21.0,-100.00,NW,310,4.0,6.0,85,0.00,,,0.00,0.000000,,2013-03-23 06:52:00,
2013-03-23 03:03:00,25.0,21.0,-100.00,NW,310,4.0,6.0,85,0.00,,,0.00,0.000000,,2013-03-23 07:03:00,
2013-03-23 03:33:00,25.0,21.0,-100.00,North,354,4.0,9.0,85,0.00,,,0.00,0.000000,,2013-03-23 07:33:00,
2013-03-23 03:42:00,25.0,21.0,-100.00,North,354,4.0,9.0,85,0.00,,,0.00,0.000000,,2013-03-23 07:42:00,
2013-03-23 03:52:00,25.0,21.0,-100.00,North,354,4.0,9.0,85,0.00,,,0.00,0.000000,,2013-03-23 07:52:00,
2013-03-23 04:03:00,25.0,21.0,-100.00,North,354,4.0,9.0,85,0.00,,,0.00,0.000000,,2013-03-23 08:03:00,
2013-03-23 04:32:00,25.0,20.0,-100.00,NW,306,3.0,8.0,82,0.00,,,0.00,0.000000,,2013-03-23 08:32:00,
2013-03-23 04:42:00,25.0,20.0,-100.00,NW,306,3.0,8.0,82,0.00,,,0.00,0.000000,,2013-03-23 08:42:00,
2013-03-23 04:53:00,25.0,20.0,-100.00,NW,306,3.0,8.0,82,0.00,,,0.00,0.000000,,2013-03-23 08:53:00,
2013-03-23 05:02:00,25.0,20.0,-100.00,NW,306,3.0,8.0,82,0.00,,,0.00,0.000000,,2013-03-23 09:02:00,
2013-03-23 05:33:00,25.0,20.0,-100.00,NNW,341,3.0,7.0,81,0.00,,,0.00,0.000000,,2013-03-23 09:33:00,
2013-03-23 05:43:00,25.0,20.0,-100.00,NNW,341,3.0,7.0,81,0.00,,,0.00,0.000000,,2013-03-23 09:43:00,
2013-03-23 05:53:00,25.0,20.0,-100.00,NNW,341,3.0,7.0,81,0.00,,,0.00,0.000000,,2013-03-23 09:53:00,
2013-03-23 06:03:00,25.0,20.0,-100.00,NNW,341,3.0,7.0,81,0.00,,,0.00,0.000000,,2013-03-23 10:03:00,
2013-03-23 06:34:00,25.0,19.0,-100.00,WNW,289,3.0,10.0,79,0.00,,,0.00,0.000000,,2013-03-23 10:34:00,
2013-03-23 06:43:00,25.0,19.0,-100.00,WNW,289,3.0,10.0,79,0.00,,,0.00,0.000000,,2013-03-23 10:43:00,
2013-03-23 06:53:00,25.0,19.0,-100.00,WNW,289,3.0,10.0,79,0.00,,,0.00,0.000000,,2013-03-23 10:53:00,
2013-03-23 07:03:00,25.0,19.0,-100.00,WNW,289,3.0,10.0,79,0.00,,,0.00,0.000000,,2013-03-23 11:03:00,
2013-03-23 07:32:00,23.0,18.0,-100.00,North,359,4.0,11.0,80,0.00,,,0.00,1.000000,,2013-03-23 11:32:00,
2013-03-23 07:42:00,23.0,18.0,-100.00,North,359,4.0,11.0,80,0.00,,,0.00,1.000000,,2013-03-23 11:42:00,
2013-03-23 07:52:00,23.0,18.0,-100.00,North,359,4.0,11.0,80,0.00,,,0.00,1.000000,,2013-03-23 11:52:00,
2013-03-23 08:02:00,23.0,18.0,-100.00,North,359,4.0,11.0,80,0.00,,,0.00,1.000000,,2013-03-23 12:02:00,
2013-03-23 08:33:00,24.0,19.0,-100.00,WSW,252,3.0,5.0,80,0.00,,,0.00,47.000000,,2013-03-23 12:33:00,
2013-03-23 08:43:00,24.0,19.0,-100.00,WSW,252,3.0,5.0,80,0.00,,,0.00,47.000000,,2013-03-23 12:43:00,
2013-03-23 08:53:00,24.0,19.0,-100.00,WSW,252,3.0,5.0,80,0.00,,,0.00,47.000000,,2013-03-23 12:53:00,
2013-03-23 09:03:00,24.0,19.0,-100.00,WSW,252,3.0,5.0,80,0.00,,,0.00,47.000000,,2013-03-23 13:03:00,
2013-03-23 09:33:00,32.0,21.0,-100.00,NW,322,3.0,9.0,64,0.00,,,0.00,280.000000,,2013-03-23 13:33:00,
2013-03-23 09:43:00,32.0,21.0,-100.00,NW,322,3.0,9.0,64,0.00,,,0.00,280.000000,,2013-03-23 13:43:00,
2013-03-23 09:53:00,32.0,21.0,-100.00,NW,322,3.0,9.0,64,0.00,,,0.00,280.000000,,2013-03-23 13:53:00,
2013-03-23 10:03:00,32.0,21.0,-100.00,NW,322,3.0,9.0,64,0.00,,,0.00,280.000000,,2013-03-23 14:03:00,
2013-03-23 10:33:00,35.0,20.0,-100.00,NW,317,4.0,12.0,53,0.00,,,0.00,464.000000,,2013-03-23 14:33:00,
2013-03-23 10:43:00,35.0,20.0,-100.00,NW,317,4.0,12.0,53,0.00,,,0.00,464.000000,,2013-03-23 14:43:00,
2013-03-23 10:53:00,35.0,20.0,-100.00,NW,317,4.0,12.0,53,0.00,,,0.00,464.000000,,2013-03-23 14:53:00,
2013-03-23 11:04:00,35.0,20.0,-100.00,NW,317,4.0,12.0,53,0.00,,,0.00,464.000000,,2013-03-23 15:04:00,
2013-03-23 11:34:00,37.0,23.0,-100.00,WNW,294,4.0,12.0,57,0.00,,,0.00,436.000000,,2013-03-23 15:34:00,
2013-03-23 11:44:00,37.0,23.0,-100.00,WNW,294,4.0,12.0,57,0.00,,,0.00,436.000000,,2013-03-23 15:44:00,
2013-03-23 11:53:00,37.0,23.0,-100.00,WNW,294,4.0,12.0,57,0.00,,,0.00,436.000000,,2013-03-23 15:53:00,
2013-03-23 12:03:00,37.0,23.0,-100.00,WNW,294,4.0,12.0,57,0.00,,,0.00,436.000000,,2013-03-23 16:03:00,
2013-03-23 12:33:00,39.0,21.0,-100.00,West,272,4.0,10.0,48,0.00,,,0.00,585.000000,,2013-03-23 16:33:00,
2013-03-23 12:43:00,39.0,21.0,-100.00,West,272,4.0,10.0,48,0.00,,,0.00,585.000000,,2013-03-23 16:43:00,
2013-03-23 12:54:00,39.0,21.0,-100.00,West,272,4.0,10.0,48,0.00,,,0.00,585.000000,,2013-03-23 16:54:00,
2013-03-23 13:03:00,39.0,21.0,-100.00,West,272,4.0,10.0,48,0.00,,,0.00,585.000000,,2013-03-23 17:03:00,
2013-03-23 13:33:00,40.0,21.0,-100.00,NW,321,4.0,11.0,46,0.00,,,0.00,658.000000,,2013-03-23 17:33:00,
2013-03-23 13:43:00,40.0,21.0,-100.00,NW,321,4.0,11.0,46,0.00,,,0.00,658.000000,,2013-03-23 17:43:00,
2013-03-23 13:53:00,40.0,21.0,-100.00,NW,321,4.0,11.0,46,0.00,,,0.00,658.000000,,2013-03-23 17:53:00,
2013-03-23 14:03:00,40.0,21.0,-100.00,NW,321,4.0,11.0,46,0.00,,,0.00,658.000000,,2013-03-23 18:03:00,
2013-03-23 14:32:00,39.0,20.0,-100.00,NNW,337,4.0,11.0,47,0.00,,,0.00,547.000000,,2013-03-23 18:32:00,
2013-03-23 14:43:00,39.0,20.0,-100.00,NNW,337,4.0,11.0,47,0.00,,,0.00,547.000000,,2013-03-23 18:43:00,
2013-03-23 14:53:00,39.0,20.0,-100.00,NNW,337,4.0,11.0,47,0.00,,,0.00,547.000000,,2013-03-23 18:53:00,
2013-03-23 15:03:00,39.0,20.0,-100.00,NNW,337,4.0,11.0,47,0.00,,,0.00,547.000000,,2013-03-23 19:03:00,
2013-03-23 15:33:00,39.0,20.0,-100.00,NW,309,4.0,10.0,46,0.00,,,0.00,429.000000,,2013-03-23 19:33:00,
2013-03-23 15:43:00,39.0,20.0,-100.00,NW,309,4.0,10.0,46,0.00,,,0.00,429.000000,,2013-03-23 19:43:00,
2013-03-23 15:53:00,39.0,20.0,-100.00,NW,309,4.0,10.0,46,0.00,,,0.00,429.000000,,2013-03-23 19:53:00,
2013-03-23 16:03:00,39.0,20.0,-100.00,NW,309,4.0,10.0,46,0.00,,,0.00,429.000000,,2013-03-23 20:03:00,
2013-03-23 16:33:00,42.0,25.0,-100.00,West,273,5.0,10.0,50,0.00,,,0.00,339.000000,,2013-03-23 20:33:00,
2013-03-23 16:43:00,42.0,25.0,-100.00,West,273,5.0,10.0,50,0.00,,,0.00,339.000000,,2013-03-23 20:43:00,
2013-03-23 16:53:00,42.0,25.0,-100.00,West,273,5.0,10.0,50,0.00,,,0.00,339.000000,,2013-03-23 20:53:00,
2013-03-23 17:03:00,42.0,25.0,-100.00,West,273,5.0,10.0,50,0.00,,,0.00,339.000000,,2013-03-23 21:03:00,
2013-03-23 17:33:00,41.0,22.0,-100.00,WNW,301,4.0,10.0,47,0.00,,,0.00,319.000000,,2013-03-23 21:33:00,
2013-03-23 17:43:00,41.0,22.0,-100.00,WNW,301,4.0,10.0,47,0.00,,,0.00,319.000000,,2013-03-23 21:43:00,
2013-03-23 17:54:00,41.0,22.0,-100.00,WNW,301,4.0,10.0,47,0.00,,,0.00,319.000000,,2013-03-23 21:54:00,
2013-03-23 18:03:00,41.0,22.0,-100.00,WNW,301,4.0,10.0,47,0.00,,,0.00,319.000000,,2013-03-23 22:03:00,
2013-03-23 18:33:00,38.0,20.0,-100.00,NW,323,5.0,13.0,48,0.00,,,0.00,239.000000,,2013-03-23 22:33:00,
2013-03-23 18:43:00,38.0,20.0,-100.00,NW,323,5.0,13.0,48,0.00,,,0.00,239.000000,,2013-03-23 22:43:00,
2013-03-23 18:53:00,38.0,20.0,-100.00,NW,323,5.0,13.0,48,0.00,,,0.00,239.000000,,2013-03-23 22:53:00,
2013-03-23 19:03:00,38.0,20.0,-100.00,NW,323,5.0,13.0,48,0.00,,,0.00,239.000000,,2013-03-23 23:03:00,
2013-03-23 19:33:00,33.0,19.0,-100.00,SW,230,4.0,12.0,55,0.00,,,0.00,49.000000,,2013-03-23 23:33:00,
2013-03-23 19:43:00,33.0,19.0,-100.00,SW,230,4.0,12.0,55,0.00,,,0.00,49.000000,,2013-03-23 23:43:00,
2013-03-23 19:53:00,33.0,19.0,-100.00,SW,230,4.0,12.0,55,0.00,,,0.00,49.000000,,2013-03-23 23:53:00,
2013-03-23 20:02:00,33.0,19.0,-100.00,SW,230,4.0,12.0,55,0.00,,,0.00,49.000000,,2013-03-24 00:02:00,
2013-03-23 20:33:00,30.0,19.0,-100.00,West,280,3.0,8.0,62,0.00,,,-99.99,3.000000,,2013-03-24 00:33:00,
2013-03-23 20:42:00,30.0,19.0,-100.00,West,280,3.0,8.0,62,0.00,,,-99.99,3.000000,,2013-03-24 00:42:00,
2013-03-23 20:53:00,30.0,19.0,-100.00,West,280,3.0,8.0,62,0.00,,,-99.99,3.000000,,2013-03-24 00:53:00,
2013-03-23 21:02:00,30.0,19.0,-100.00,West,280,3.0,8.0,62,0.00,,,-99.99,3.000000,,2013-03-24 01:02:00,
2013-03-23 21:33:00,29.0,18.0,-100.00,SW,217,2.0,8.0,62,0.00,,,0.00,0.000000,,2013-03-24 01:33:00,
2013-03-23 21:43:00,29.0,18.0,-100.00,SW,217,2.0,8.0,62,0.00,,,0.00,0.000000,,2013-03-24 01:43:00,
2013-03-23 21:53:00,29.0,18.0,-100.00,SW,217,2.0,8.0,62,0.00,,,0.00,0.000000,,2013-03-24 01:53:00,
2013-03-23 22:03:00,29.0,18.0,-100.00,SW,217,2.0,8.0,62,0.00,,,0.00,0.000000,,2013-03-24 02:03:00,
2013-03-23 22:32:00,28.0,18.0,-100.00,NNE,28,4.0,8.0,65,0.00,,,0.00,0.000000,,2013-03-24 02:32:00,
2013-03-23 22:43:00,28.0,18.0,-100.00,NNE,28,4.0,8.0,65,0.00,,,0.00,0.000000,,2013-03-24 02:43:00,
2013-03-23 22:52:00,28.0,18.0,-100.00,NNE,28,4.0,8.0,65,0.00,,,0.00,0.000000,,2013-03-24 02:52:00,
2013-03-23 23:03:00,28.0,18.0,-100.00,NNE,28,4.0,8.0,65,0.00,,,0.00,0.000000,,2013-03-24 03:03:00,
2013-03-23 23:33:00,29.0,18.0,-100.00,North,358,6.0,11.0,62,0.00,,,0.00,0.000000,,2013-03-24 03:33:00,
2013-03-23 23:43:00,29.0,18.0,-100.00,North,358,6.0,11.0,62,0.00,,,0.00,0.000000,,2013-03-24 03:43:00,
2013-03-23 23:53:00,29.0,18.0,-100.00,North,358,6.0,11.0,62,0.00,,,0.00,0.000000,,2013-03-24 03:53:00,